Content
SEND FEEDBACK

Daily
Averages
Monthly
Summary
Philippines

QUEZON CITY, PHILIPPINES


Home > Asia > Philippines
Elevation: 46 meters     Latitude: 14 39N     Longitude: 121 03E

WEATHER
 
SELECT A DAY
Number of Records: 179,047;   Date Range: 7/1/96 - 12/23/14
 
SHARE

PRINT THIS DATA

[ ← Previous Day ]
WEATHER ALMANAC - 21 JUNE, 2013
[ Next Day → ]
[ °F ]   °C
Weather ElementAverageHighLow
Temperature27.6 °C31.7 °C (11:00 am)26 °C (1:00 am)
Dewpoint24.8 °C26.1 °C (8:00 pm)21 °C (12:00 pm)
Humidity84.8 %100 % (5:00 pm)55 % (12:00 pm)
Barometer1007.1 hPa1009.5 hPa (11:00 pm)1006.1 hPa (2:00 am)
Wind Speed7.7 km/h14.8 km/h (1:00 pm)
Weather ElementAverage
Visibility9.5 km
Wind DirectionESE (106.5 °)

Weather ElementTotal
Precipitation---
Cooling Degree Days10.5 (Base 18.3)
Growing Degree Days18.8 (Base 10)
Averaged from 32 records on 21 June, 2013
WEATHER CONDITIONS BREAKOUT
WIND DIRECTION BREAKOUT
WEATHER BY HOUR - 21 JUNE, 2013
[ °F ]   °C
Local TimeTemperatureDewpointHumidityBarometerVisibilityWind DirectionWind SpeedGust SpeedPrecipitationEventsConditions
1:00 AM26 °C24 °C89 %1007.1 hPa10 kmSSW (200°)9.3 km/hScattered Clouds
2:00 AM26.1 °C24.4 °C86 %1006.8 hPa9.7 kmSouth (180°)3.5 km/hHaze
2:00 AM26 °C24 °C89 %1006.1 hPa10 kmVariable3.7 km/hMostly Cloudy
3:00 AM26 °C24 °C89 %1006.1 hPa10 kmVariable3.7 km/hScattered Clouds
4:00 AM26 °C25 °C94 %1006.1 hPa10 kmVariable7.4 km/hScattered Clouds
5:00 AM26.7 °C25.6 °C93 %1006.8 hPa9.7 kmSSE (150°)10.8 km/hHaze
5:00 AM27 °C24 °C84 %1006.1 hPa10 kmSSE (150°)9.3 km/hOvercast
6:00 AM27 °C23 °C79 %1006.1 hPa10 kmSSE (150°)5.6 km/hOvercast
7:00 AM27 °C24 °C84 %1007.1 hPa10 kmSouth (170°)9.3 km/hMostly Cloudy
8:00 AM28.3 °C23.3 °C66 %1007.5 hPa9.7 kmSSE (150°)7.2 km/hHaze
8:00 AM28 °C23 °C74 %1007.1 hPa10 kmSSE (150°)9.3 km/hMostly Cloudy
9:00 AM29 °C24 °C74 %1008.1 hPa10 kmSE (130°)7.4 km/hMostly Cloudy
10:00 AM31 °C25 °C70 %1008.1 hPa10 kmSSE (150°)9.3 km/hMostly Cloudy
11:00 AM31.7 °C25.6 °C62 %1008.1 hPa9.7 kmSE (130°)10.8 km/hHaze
11:00 AM31 °C25 °C70 %1007.1 hPa10 kmSE (130°)11.1 km/hMostly Cloudy
12:00 PM31 °C21 °C55 %1007.1 hPa10 kmSE (130°)13 km/hMostly Cloudy
1:00 PM31 °C25 °C70 %1006.1 hPa10 kmESE (110°)14.8 km/hMostly Cloudy
2:00 PM29.4 °C24.4 °C69 %1006.8 hPa9.7 kmENE (70°)3.5 km/hHaze
2:00 PM30 °C25 °C74 %1006.1 hPa10 kmENE (70°)3.7 km/hMostly Cloudy
2:10 PM28 °C26 °C89 %1006.1 hPa5 kmNNE (20°)9.3 km/hRainLight Rain Showers
3:00 PM27 °C25 °C89 %1006.1 hPa10 kmENE (70°)13 km/hMostly Cloudy
4:00 PM28 °C26 °C89 %1006.1 hPa10 kmEast (90°)9.3 km/hOvercast
5:00 PM26.1 °C25.6 °C98 %1006.1 hPa8 kmSSE (150°)10.8 km/hRainLight Rain
5:00 PM26 °C26 °C100 %1006.1 hPa8 kmSSE (150°)9.3 km/hRainLight Rain
6:00 PM26 °C26 °C100 %1006.1 hPa8 kmSSE (150°)9.3 km/hRainLight Rain
7:00 PM26 °C26 °C100 %1007.1 hPa10 kmESE (110°)9.3 km/hRainLight Rain
8:00 PM26.7 °C26.1 °C96 %1008.5 hPa9.7 kmEast (100°)7.2 km/hRainLight Rain
8:00 PM26 °C26 °C100 %1008.1 hPa10 kmEast (100°)9.3 km/hRainLight Rain
9:00 PM26 °C26 °C100 %1008.1 hPa10 kmSE (140°)5.6 km/hOvercast
10:00 PM26 °C25 °C94 %1008.1 hPa10 kmVariable3.7 km/hMostly Cloudy
11:00 PM26.1 °C25 °C93 %1009.5 hPa9.7 kmCalmHaze
11:00 PM26 °C25 °C94 %1008.1 hPa10 kmCalmMostly Cloudy
Hourly data recorded from RPLL, located 0 kilometers away from Quezon City, Philippines







STORIES FROM OUR PARTNERS